Temperature
22 21 21 20 20 21 23 25 25 25 24 24 24 23 22 22 21 19 19 19 20 20 19 19 19 19 19 19 19 19 19 19 19 19 19 19 19 19 19 18 18 18 19 19 19 19 18 18 18
22 21 21 20 21 22 24 25 25 25 25 24 24 23 22 21 20 19 19 19 20 20 19 19 19 19 19 19 19 19 19 19 19 19 19 19 19 18 18 18 18 19 19 19 19 19 19 18 18
22 21 21 20 21 22 24 25 25 26 25 25 24 23 22 21 20 19 20 20 20 20 19 19 19 19 19 19 19 19 19 19 19 19 19 19 19 18 18 18 18 19 18 18 19 19 18 18 18
22 21 21 21 23 25 26 26 26 26 25 24 23 22 21 21 20 20 20 20 20 20 19 19 19 19 19 19 19 19 19 19 19 19 19 19 18 18 18 18 18 18 18 19 19 18 18 18 18
22 22 21 22 24 26 26 27 26 25 25 23 23 21 21 21 21 20 20 20 20 20 19 19 19 19 19 19 19 19 19 19 19 19 19 19 19 19 18 18 19 19 18 19 18 18 18 18 18
22 21 22 22 25 26 27 27 26 25 24 23 22 21 21 20 20 20 20 20 20 20 19 19 19 19 19 19 19 19 19 19 19 19 19 19 19 19 19 18 19 19 19 18 18 18 18 18 18
23 22 23 24 25 26 27 27 26 25 24 24 22 21 20 20 20 20 20 20 20 20 20 19 19 19 19 19 19 19 19 19 19 19 19 19 19 19 19 18 18 18 19 19 19 18 18 18 18
24 22 24 24 25 26 27 27 27 26 25 24 23 21 21 20 20 20 20 20 20 20 20 19 19 19 19 19 19 19 19 19 19 19 19 19 19 19 19 18 18 18 19 19 19 18 18 18 18
25 23 23 25 26 26 27 27 26 26 25 24 23 22 21 21 21 20 20 20 19 19 19 19 19 19 19 19 19 19 19 19 18 19 19 19 19 19 18 18 19 19 19 19 19 19 18 18 18
25 23 25 27 27 27 28 27 27 25 24 23 22 22 21 21 21 20 20 19 19 19 19 19 19 19 19 19 19 18 18 18 18 18 19 19 19 18 18 18 18 19 19 19 19 19 19 18 18
25 25 27 28 28 28 28 27 27 25 23 23 22 21 21 21 21 20 20 20 20 20 19 19 19 19 19 19 19 19 18 18 18 18 18 18 18 18 18 18 18 19 19 19 19 19 19 18 18
26 27 28 28 28 29 28 28 26 26 24 24 23 22 21 21 21 21 20 20 20 20 20 19 19 19 19 19 19 19 18 19 18 18 18 18 18 18 18 18 19 19 18 19 19 19 18 18 19
27 28 29 29 29 28 28 27 26 25 25 24 23 22 22 21 21 21 21 20 20 20 20 19 19 19 19 19 19 19 18 18 18 18 18 18 18 18 18 19 19 18 18 18 18 18 18 18 18
28 28 29 28 28 28 27 27 26 25 24 23 23 22 22 22 21 21 21 21 20 20 20 20 19 19 19 19 19 19 18 18 18 18 18 18 19 19 18 18 18 18 18 18 18 18 18 18 18
29 28 28 28 28 28 27 25 25 25 24 23 23 22 22 22 22 21 21 21 21 20 20 20 19 19 19 19 19 19 18 18 18 18 18 18 18 19 18 18 18 18 18 18 18 18 18 18 18
28 27 26 28 28 28 26 24 25 25 24 23 23 23 22 22 22 22 21 21 21 20 20 20 19 19 19 19 19 19 19 19 19 18 18 18 18 18 18 18 18 18 18 18 18 18 18 18 18
26 26 26 27 28 28 26 24 25 24 24 24 23 23 22 22 22 22 21 21 21 21 20 20 19 19 19 19 19 19 19 19 19 18 18 18 18 18 18 18 18 18 18 18 18 18 18 18 18
26 26 27 27 27 27 26 24 24 25 24 24 23 23 22 22 22 22 22 21 21 21 20 20 20 19 19 19 19 19 19 19 19 19 19 19 18 18 18 18 18 18 18 18 18 18 18 18 18
28 27 27 27 28 26 25 25 24 25 24 24 23 23 22 22 22 22 22 21 21 21 20 20 20 20 19 19 19 19 19 19 19 19 19 19 19 18 18 18 18 18 18 18 18 18 18 18 18
28 27 27 27 28 27 25 25 25 25 24 24 23 23 22 22 22 22 21 21 21 21 21 20 20 20 19 19 19 19 19 19 18 18 19 19 19 18 18 18 18 18 18 18 18 18 18 18 18
28 27 27 27 27 26 26 25 24 25 24 24 23 23 23 22 22 22 21 21 21 21 21 20 20 20 20 19 19 19 19 19 18 18 19 19 18 18 18 18 18 18 18 18 18 18 18 18 18
27 29 29 28 26 24 25 23 24 24 23 23 23 22 22 22 22 22 21 21 21 21 21 21 20 20 19 19 19 19 19 19 19 19 19 18 18 18 18 18 18 18 18 18 18 18 18 18 18
29 29 29 28 26 24 24 23 23 23 23 23 22 22 22 22 22 21 21 21 21 21 21 20 20 20 20 19 19 19 19 19 19 19 19 19 18 18 18 18 18 18 18 18 18 18 18 18 18
29 28 26 24 23 23 24 23 23 22 23 23 23 22 22 22 22 22 21 21 21 21 21 20 20 20 20 19 19 19 19 19 19 19 19 19 19 18 18 18 18 18 18 18 18 18 18 18 18
27 24 23 23 22 22 23 23 22 23 24 24 23 23 23 22 22 22 21 21 21 21 20 20 20 20 20 19 19 19 19 19 19 19 19 19 19 19 19 18 18 18 18 18 18 18 18 18 18
27 24 23 23 23 22 23 23 23 24 24 24 24 23 23 22 22 22 21 21 21 21 20 20 20 20 20 19 19 19 19 19 19 19 19 19 19 19 19 18 18 18 18 18 18 18 18 18 18
27 25 23 22 22 22 22 22 23 24 23 23 23 23 22 22 22 22 22 21 21 21 20 20 20 20 20 19 19 19 19 19 19 19 19 19 19 19 18 18 18 18 18 18 18 18 18 18 18
27 25 22 22 22 22 22 22 21 22 22 22 22 22 22 22 22 22 21 21 21 21 20 20 20 20 20 19 19 19 19 19 19 19 19 19 19 18 18 18 18 18 18 18 18 18 18 18 18
27 26 22 20 20 21 21 21 23 22 22 21 21 22 22 22 22 22 21 21 21 21 20 20 20 20 19 19 19 19 19 18 18 18 18 18 18 18 18 18 18 18 18 18 18 18 18 18 18
27 26 23 22 22 20 20 21 24 22 22 22 22 22 22 22 22 22 21 21 21 21 20 20 20 19 19 19 19 19 19 18 18 18 18 18 18 18 18 18 18 18 18 18 18 18 18 18 17
Wind_Speed
9 7 3 1 1 3 3 4 7 7 6 8 12 11 10 8 6 7 4 10 11 9 11 14 15 16 16 16 17 17 17 17 17 16 17 17 17 17 17 16 15 15 14 14 13 13 13 14 13
7 5 2 1 3 3 3 6 10 11 11 11 12 12 10 8 8 10 6 10 12 11 11 14 16 16 16 16 16 16 16 16 16 16 16 16 16 16 16 16 15 14 14 13 13 13 12 12 12
5 3 1 2 1 3 5 8 12 12 11 8 7 8 6 6 8 7 8 13 11 10 12 14 16 16 16 16 16 16 16 15 15 15 16 15 15 15 15 14 14 13 12 12 12 11 11 10 10
3 1 1 2 2 2 7 10 12 14 9 9 9 7 5 5 6 10 13 13 12 9 12 15 16 16 16 16 16 16 15 15 15 15 15 14 14 14 13 13 12 12 12 11 10 10 9 9 8
1 2 3 3 3 3 7 10 11 11 7 10 12 9 6 6 15 16 15 14 13 9 10 14 16 16 16 15 16 15 15 14 14 14 14 13 13 13 12 12 11 11 10 10 9 9 8 7 7
2 2 3 3 3 4 6 10 12 14 14 12 12 9 5 9 14 15 14 12 12 10 9 13 15 16 15 15 15 15 14 14 14 13 13 13 12 12 11 11 11 10 9 9 8 7 7 6 5
3 2 3 4 4 5 6 8 11 13 12 9 10 7 6 8 12 15 13 12 11 10 9 9 11 13 14 14 14 14 13 13 12 12 12 11 11 11 11 10 10 9 9 8 7 7 6 5 4
3 3 2 3 5 4 5 6 9 13 10 12 8 8 8 10 13 14 13 11 10 9 7 7 9 10 10 11 12 13 12 12 11 11 11 10 10 10 10 9 9 8 8 8 7 7 6 5 5
3 3 3 4 6 5 7 9 6 9 11 6 5 8 13 17 16 14 12 10 9 9 7 6 6 7 9 9 10 11 11 11 10 9 9 9 7 7 7 8 8 8 8 7 7 6 6 5 5
4 4 5 5 6 8 9 10 7 8 11 10 12 14 16 16 15 15 13 12 10 9 7 6 6 7 7 8 8 8 8 8 7 6 6 6 6 6 6 7 8 8 7 6 7 7 6 5 4
4 5 3 4 5 8 8 7 6 11 8 14 19 19 17 16 14 13 12 11 10 10 9 7 7 7 7 5 6 5 5 6 6 6 6 6 5 4 4 4 5 5 5 4 4 4 4 4 4
3 2 4 4 5 6 8 8 7 7 10 16 20 20 17 16 14 13 12 10 9 9 8 8 7 7 6 6 5 5 5 4 4 5 7 6 4 3 4 3 4 4 4 3 3 3 4 4 5
4 2 3 4 4 6 9 8 8 8 13 17 18 17 16 15 13 11 12 10 9 9 8 8 7 7 6 5 4 5 4 5 5 6 7 7 4 3 3 3 4 4 4 4 3 4 3 3 3
3 2 2 4 4 5 9 7 7 9 15 17 16 14 14 14 13 12 11 11 10 9 8 7 8 7 6 5 4 4 5 5 5 6 7 7 6 4 3 2 2 3 4 4 4 3 3 2 2
2 3 2 1 5 4 9 6 5 12 15 16 15 14 14 13 13 13 13 13 11 10 8 8 8 6 6 5 4 4 5 5 5 5 7 7 6 5 4 2 2 2 2 2 2 2 2 1 1
3 3 1 2 3 4 8 4 6 12 14 13 13 13 13 11 12 12 12 11 11 10 8 8 8 7 5 4 4 3 4 5 4 4 5 5 6 6 4 2 2 2 1 1 1 1 1 0 0
3 1 2 3 2 4 5 4 7 10 13 13 12 12 12 11 11 11 12 12 11 10 9 8 6 6 6 4 3 3 3 3 3 4 4 4 5 5 4 2 2 1 1 0 1 1 1 1 0
4 2 2 3 3 4 5 4 8 10 11 12 12 12 12 13 13 13 13 12 11 9 8 8 6 6 5 4 2 2 2 2 3 3 3 4 4 5 4 2 2 1 1 0 0 1 1 1 1
4 2 3 3 4 4 5 6 9 10 10 11 11 12 12 12 11 12 13 12 11 9 9 8 7 6 5 4 3 2 2 2 2 3 4 5 5 5 4 2 2 1 2 2 2 1 1 1 1
1 0 2 1 2 4 5 4 7 9 12 13 14 14 13 10 10 12 12 12 11 11 10 8 8 7 6 5 4 3 3 2 2 2 3 6 6 6 5 3 2 2 2 1 1 1 1 1 1
2 2 2 2 1 3 4 2 3 5 5 7 9 10 11 14 14 14 13 11 11 11 11 10 9 7 7 6 3 2 2 1 1 1 2 4 6 6 5 4 3 2 2 2 2 2 2 2 1
4 4 2 3 3 2 3 2 5 5 5 7 8 8 8 10 11 12 12 11 11 11 10 9 8 8 7 6 6 6 4 4 4 3 3 3 4 5 6 5 4 4 3 3 3 2 2 3 2
5 4 2 1 2 2 2 3 5 3 5 7 8 9 8 9 11 12 12 12 11 10 9 8 7 7 7 7 7 7 5 4 3 2 3 3 3 4 5 5 4 4 3 4 3 3 2 3 3
1 5 7 6 5 1 3 3 4 4 8 8 8 9 9 9 10 10 10 9 8 8 8 8 7 7 7 7 7 8 7 6 4 4 4 3 3 3 4 5 5 4 4 4 4 4 4 3 3
4 5 5 6 5 4 3 2 5 4 5 9 10 10 9 9 9 9 9 10 10 10 9 8 8 7 7 7 7 8 8 7 7 6 5 4 3 4 5 5 5 5 5 5 5 4 4 4 4
2 8 6 4 4 4 3 1 4 3 3 4 6 8 9 8 9 10 11 11 10 10 9 8 9 8 7 7 7 6 6 5 5 5 5 5 5 5 4 5 5 6 6 6 5 4 4 4 4
1 2 8 7 2 1 2 2 4 1 4 5 5 6 8 8 9 9 10 10 10 10 10 10 9 8 7 7 6 6 5 5 5 5 4 4 4 4 4 5 5 5 5 5 4 4 4 4 4
5 5 6 4 3 1 3 3 4 3 3 4 4 5 6 7 7 7 8 8 9 9 9 9 8 8 7 6 6 6 5 5 5 4 5 5 5 4 4 4 5 5 5 4 4 4 4 4 4
1 2 5 4 5 6 3 5 5 8 7 7 5 5 6 6 6 7 7 8 8 8 8 8 8 7 6 6 6 5 4 5 4 5 6 6 5 5 5 5 5 4 4 4 4 5 4 5 5
3 4 6 4 3 4 4 6 4 6 7 7 6 4 5 5 5 5 6 5 5 7 8 8 8 8 7 7 6 6 5 4 5 6 6 5 6 5 6 5 5 5 5 5 5 6 5 5 5
Wind_Direction
171 161 154 173 31 47 80 96 102 88 65 66 74 79 77 62 91 120 148 134 130 130 130 126 124 122 120 118 117 115 115 117 116 117 119 121 120 122 124 126 127 128 128 127 128 132 134 132 129
159 158 157 50 64 78 85 105 94 100 121 108 81 79 76 69 85 114 127 134 132 130 129 128 126 124 123 122 121 121 120 119 119 119 120 123 124 124 126 127 128 128 129 129 129 130 130 132 134
164 176 127 56 86 127 113 114 111 108 108 96 83 63 70 99 110 124 138 134 129 126 131 132 130 127 126 125 125 124 124 124 123 122 122 124 126 127 128 128 130 131 132 133 132 133 134 137 140
159 148 42 63 91 119 120 129 119 108 87 78 92 72 62 87 115 127 132 130 125 126 132 134 132 130 129 129 129 128 127 128 128 126 126 127 128 128 129 130 131 135 138 138 138 140 142 144 145
112 72 44 48 73 89 118 124 117 106 95 93 97 97 83 80 112 124 128 128 129 128 131 135 134 133 132 130 129 131 132 132 131 129 130 131 131 131 132 135 136 139 141 142 145 147 148 150 149
97 72 68 86 92 89 104 113 107 105 111 109 106 106 102 122 121 128 130 129 130 132 132 133 135 136 135 133 132 133 135 136 135 135 136 137 137 137 137 140 144 144 146 150 151 154 158 161 162
127 108 132 124 100 101 123 122 118 124 127 129 126 106 124 132 132 132 130 127 126 129 129 130 136 138 137 137 137 136 136 136 138 140 141 142 144 143 144 149 152 153 155 158 162 168 174 178 183
162 124 124 130 129 140 139 119 126 128 121 131 127 127 149 153 135 130 128 125 126 128 129 131 134 138 139 140 144 143 142 140 140 142 143 145 147 151 154 157 163 165 167 172 178 185 193 202 208
138 106 161 169 151 155 134 109 104 102 117 122 109 126 145 141 131 128 128 126 133 136 139 140 138 140 144 147 148 148 148 148 148 148 146 144 144 155 165 170 175 178 181 186 194 202 212 222 225
137 155 191 176 160 146 130 122 122 110 110 104 107 119 134 137 137 139 142 146 149 151 158 156 155 153 153 154 149 156 156 154 155 157 152 148 151 163 169 175 184 188 192 199 209 218 225 235 244
155 173 160 142 157 135 130 123 114 123 130 144 142 144 146 144 144 145 147 151 157 158 158 163 165 162 162 156 153 161 162 162 168 172 172 162 161 164 166 172 185 195 200 214 225 237 240 240 247
145 186 144 131 133 133 140 135 118 127 156 154 148 148 149 151 152 153 154 157 154 155 158 162 160 158 160 154 159 164 165 170 179 184 178 166 157 155 160 179 193 198 213 221 235 249 259 257 254
132 115 112 126 131 134 125 126 118 123 135 143 144 146 151 155 156 156 158 158 153 152 153 154 153 151 150 150 165 161 165 168 178 174 173 165 158 162 171 186 191 203 215 219 226 231 235 241 237
170 127 120 134 129 120 112 108 108 136 139 143 149 153 158 158 157 155 155 157 157 155 156 155 154 153 147 149 153 159 162 171 173 177 177 171 165 161 159 166 181 202 212 217 211 217 228 229 218
91 81 31 148 127 127 101 74 132 150 146 151 156 159 162 161 159 161 164 163 162 159 155 156 156 152 149 149 155 153 156 162 170 176 173 172 168 163 161 162 178 209 217 206 204 223 224 214 203
23 51 55 267 141 137 107 140 157 151 153 158 163 163 161 164 163 163 160 159 160 155 153 158 156 151 152 149 148 150 156 157 166 167 165 173 172 168 160 158 190 217 213 178 167 161 136 194 176
24 14 238 267 200 147 117 162 170 161 159 163 167 165 162 162 160 161 160 159 160 158 157 156 148 151 158 153 149 149 150 155 166 166 165 176 174 168 164 167 190 200 152 180 204 153 154 171 223
246 229 237 222 217 133 128 163 168 175 165 169 170 169 167 169 169 165 163 161 158 156 155 158 158 160 156 148 138 133 137 164 167 176 180 181 183 174 166 166 178 158 137 162 151 169 154 176 199
221 221 245 230 179 131 149 164 180 183 176 173 172 174 175 175 168 164 164 163 159 159 158 162 164 171 162 160 167 167 185 191 187 191 190 189 191 183 172 173 171 159 164 189 180 163 165 226 125
196 246 273 293 143 135 148 173 184 186 188 180 175 177 177 168 164 166 166 166 168 170 171 171 174 177 177 181 180 174 169 183 198 209 198 197 194 192 188 176 185 183 172 189 188 152 168 245 151
285 210 215 188 35 81 108 14 191 190 176 168 170 169 171 172 172 172 172 173 172 176 179 180 181 180 182 178 161 152 125 105 175 208 214 212 203 201 196 184 188 194 183 198 211 195 190 224 251
273 260 214 165 100 250 140 191 257 186 163 178 174 164 169 173 173 172 171 172 176 183 183 179 179 180 183 175 169 168 175 191 206 201 205 218 212 208 204 193 193 196 194 203 223 214 200 186 220
248 258 241 231 128 53 17 126 268 165 174 189 185 178 171 171 173 175 178 181 180 178 176 176 175 183 186 183 181 180 192 202 203 196 201 218 227 219 212 207 205 203 202 208 214 206 207 196 195
263 12 10 40 69 18 253 141 262 213 191 181 182 179 177 177 178 178 176 172 175 175 178 176 177 193 194 190 189 189 194 196 197 206 211 221 228 230 226 218 213 213 211 212 212 210 211 215 208
47 70 21 359 8 267 280 108 246 228 188 174 173 176 176 176 172 165 168 176 176 176 183 180 182 194 195 195 199 201 201 199 203 208 210 210 221 228 231 228 216 215 219 217 212 213 222 218 215
204 136 155 205 226 265 339 194 246 227 163 153 154 165 165 168 168 166 178 184 182 180 182 179 186 195 194 195 206 208 206 208 215 215 213 215 223 227 226 227 222 220 220 224 215 215 218 218 221
186 190 175 151 163 92 293 276 301 21 75 92 118 139 162 175 178 175 179 180 181 182 184 184 187 195 197 196 200 207 206 209 217 218 216 221 227 229 227 228 226 228 223 220 210 218 223 217 220
164 163 87 107 149 243 283 256 231 211 158 125 131 158 168 169 172 177 174 176 184 185 185 181 182 191 195 197 201 208 212 215 217 216 222 225 228 229 226 229 229 229 227 226 216 224 223 216 227
327 92 109 126 151 157 225 266 222 195 179 162 163 166 158 157 169 175 173 184 184 181 179 182 184 185 191 195 198 203 209 212 217 225 230 230 232 228 229 227 228 228 226 229 226 229 224 224 236
174 172 145 150 233 166 167 260 266 179 163 158 159 152 135 137 144 160 167 172 185 181 181 184 185 186 194 195 194 201 207 212 218 229 235 232 233 234 232 228 225 227 230 226 225 232 230 228 236
Height
1506 1506 1506 1507 1509 1514 1513 1504 1497 1497 1500 1501 1500 1501 1504 1509 1513 1523 1521 1520 1521 1521 1521 1522 1522 1522 1522 1522 1523 1523 1524 1525 1526 1527 1528 1529 1530 1532 1533 1534 1535 1537 1538 1539 1540 1541 1542 1543 1545
1506 1506 1507 1508 1513 1522 1515 1502 1500 1499 1501 1501 1502 1504 1507 1512 1514 1517 1519 1521 1521 1522 1522 1523 1523 1523 1524 1524 1525 1526 1526 1527 1528 1529 1530 1531 1532 1533 1534 1536 1537 1538 1539 1541 1542 1543 1543 1545 1547
1507 1507 1508 1510 1515 1518 1512 1502 1500 1500 1502 1501 1504 1507 1511 1515 1517 1518 1520 1522 1523 1523 1524 1524 1525 1525 1525 1526 1527 1528 1529 1529 1530 1531 1532 1533 1534 1535 1536 1537 1538 1540 1541 1542 1543 1544 1545 1546 1548
1507 1508 1510 1513 1514 1505 1501 1500 1499 1501 1503 1504 1506 1511 1515 1518 1518 1519 1521 1523 1523 1524 1525 1526 1526 1527 1527 1528 1529 1529 1530 1531 1532 1533 1534 1535 1536 1536 1538 1539 1540 1541 1542 1543 1544 1545 1546 1548 1549
1507 1508 1513 1517 1510 1501 1498 1498 1499 1501 1504 1508 1507 1514 1518 1520 1520 1521 1523 1524 1524 1525 1526 1527 1528 1528 1529 1530 1530 1531 1532 1533 1534 1534 1535 1536 1537 1538 1539 1540 1541 1542 1543 1545 1546 1547 1547 1548 1549
1508 1510 1520 1522 1511 1502 1499 1499 1500 1503 1507 1510 1511 1515 1520 1522 1522 1523 1524 1525 1526 1527 1528 1528 1529 1530 1531 1531 1532 1533 1534 1535 1535 1536 1537 1538 1539 1539 1540 1541 1543 1544 1545 1546 1547 1548 1549 1549 1550
1509 1512 1518 1515 1511 1506 1501 1499 1500 1504 1507 1510 1511 1515 1521 1523 1524 1524 1526 1527 1528 1529 1529 1530 1531 1532 1533 1533 1534 1535 1535 1536 1537 1538 1538 1539 1540 1541 1542 1543 1544 1545 1546 1547 1548 1549 1550 1550 1551
1506 1510 1514 1512 1511 1507 1500 1500 1502 1503 1507 1511 1511 1514 1520 1523 1524 1525 1527 1528 1529 1530 1531 1532 1532 1533 1534 1534 1535 1536 1537 1538 1539 1539 1540 1541 1541 1542 1543 1544 1545 1546 1547 1548 1549 1550 1551 1552 1552
1506 1513 1517 1509 1507 1504 1500 1501 1504 1505 1507 1511 1512 1513 1517 1522 1524 1526 1527 1529 1530 1531 1532 1532 1533 1534 1535 1536 1537 1538 1539 1540 1540 1541 1541 1542 1543 1544 1544 1545 1546 1547 1548 1549 1549 1550 1551 1552 1553
1505 1513 1507 1499 1497 1499 1499 1501 1504 1507 1509 1512 1514 1517 1520 1522 1524 1525 1527 1528 1529 1530 1532 1532 1533 1534 1535 1536 1537 1539 1540 1540 1541 1542 1543 1543 1544 1545 1545 1546 1547 1548 1549 1549 1550 1551 1552 1552 1553
1501 1504 1498 1496 1496 1497 1499 1501 1503 1506 1511 1511 1512 1516 1520 1522 1524 1526 1527 1528 1529 1530 1531 1532 1533 1535 1536 1537 1538 1540 1540 1541 1542 1543 1543 1544 1545 1545 1546 1547 1547 1548 1549 1550 1551 1551 1552 1553 1553
1500 1498 1496 1496 1496 1497 1498 1501 1504 1505 1508 1510 1511 1514 1519 1522 1524 1526 1527 1529 1530 1531 1532 1533 1534 1535 1536 1538 1539 1540 1541 1541 1542 1543 1544 1544 1545 1545 1546 1547 1548 1549 1550 1551 1551 1552 1552 1553 1553
1498 1498 1496 1496 1496 1497 1499 1500 1503 1507 1509 1512 1514 1517 1519 1521 1524 1526 1528 1529 1530 1531 1532 1533 1534 1535 1537 1538 1539 1540 1541 1542 1543 1544 1544 1545 1545 1546 1546 1547 1548 1549 1550 1550 1551 1552 1552 1553 1553
1497 1497 1496 1496 1496 1497 1500 1503 1505 1509 1510 1513 1515 1518 1520 1522 1523 1525 1527 1528 1530 1531 1532 1533 1535 1536 1537 1539 1540 1540 1541 1542 1543 1544 1545 1546 1546 1546 1547 1547 1548 1549 1549 1550 1551 1551 1552 1552 1553
1496 1498 1498 1497 1496 1499 1501 1508 1508 1509 1511 1514 1516 1518 1521 1522 1523 1524 1526 1527 1529 1531 1532 1533 1535 1536 1538 1539 1540 1541 1542 1543 1544 1544 1545 1546 1546 1547 1547 1547 1548 1548 1549 1550 1550 1551 1551 1551 1552
1498 1504 1510 1500 1497 1499 1505 1518 1510 1511 1512 1514 1516 1518 1520 1522 1523 1524 1526 1527 1529 1531 1532 1533 1534 1536 1537 1539 1540 1541 1542 1543 1544 1544 1545 1546 1546 1547 1547 1547 1547 1548 1549 1549 1549 1550 1550 1551 1551
1508 1516 1513 1504 1497 1498 1504 1514 1510 1511 1512 1514 1516 1517 1519 1521 1523 1524 1525 1527 1528 1530 1531 1533 1534 1535 1537 1539 1540 1541 1542 1543 1544 1544 1545 1545 1546 1546 1547 1547 1547 1548 1548 1549 1549 1549 1550 1550 1550
1517 1514 1511 1508 1500 1499 1505 1509 1508 1509 1510 1512 1514 1516 1517 1519 1521 1522 1524 1526 1528 1530 1531 1532 1534 1535 1537 1538 1540 1541 1542 1542 1543 1544 1544 1545 1545 1546 1546 1547 1547 1548 1548 1548 1548 1549 1549 1549 1549
1501 1507 1509 1504 1497 1501 1506 1508 1508 1508 1508 1510 1512 1514 1516 1517 1520 1522 1524 1526 1527 1529 1530 1532 1533 1535 1536 1537 1538 1540 1541 1542 1542 1543 1544 1544 1545 1545 1545 1546 1546 1547 1547 1547 1548 1548 1547 1547 1548
1499 1507 1507 1501 1496 1500 1506 1509 1507 1506 1506 1506 1508 1511 1513 1517 1519 1521 1523 1524 1526 1527 1529 1531 1532 1534 1535 1536 1538 1539 1540 1541 1542 1542 1543 1543 1543 1544 1544 1545 1545 1546 1546 1546 1546 1546 1546 1546 1546
1500 1504 1504 1504 1500 1501 1507 1516 1511 1507 1507 1508 1509 1509 1511 1514 1516 1518 1520 1522 1524 1526 1527 1529 1531 1533 1534 1536 1537 1539 1540 1540 1541 1541 1541 1542 1542 1542 1543 1543 1543 1544 1544 1544 1545 1545 1545 1545 1545
1504 1492 1493 1498 1509 1518 1512 1533 1516 1508 1508 1508 1509 1510 1511 1513 1515 1517 1518 1520 1522 1524 1526 1528 1529 1531 1533 1535 1536 1536 1537 1537 1538 1539 1540 1541 1541 1541 1542 1542 1542 1542 1542 1542 1543 1543 1543 1543 1543
1493 1486 1490 1495 1507 1518 1516 1528 1522 1510 1512 1508 1507 1507 1509 1511 1513 1514 1517 1519 1521 1523 1525 1527 1528 1530 1531 1533 1534 1535 1536 1537 1538 1539 1539 1539 1539 1540 1540 1540 1540 1540 1540 1540 1541 1541 1541 1541 1541
1485 1489 1495 1503 1515 1532 1521 1527 1528 1514 1507 1505 1506 1506 1506 1509 1510 1513 1516 1518 1520 1522 1524 1526 1527 1528 1530 1531 1532 1533 1534 1535 1536 1536 1537 1537 1538 1538 1538 1538 1538 1538 1538 1538 1539 1538 1538 1539 1539
1489 1510 1532 1535 1542 1539 1519 1524 1524 1505 1499 1500 1501 1503 1504 1506 1508 1510 1514 1516 1518 1520 1522 1524 1525 1526 1528 1529 1530 1531 1532 1533 1533 1534 1534 1535 1535 1535 1536 1536 1536 1536 1536 1536 1536 1536 1536 1536 1536
1493 1507 1534 1546 1547 1538 1523 1527 1515 1500 1497 1498 1499 1501 1503 1505 1506 1508 1511 1513 1516 1518 1519 1521 1523 1524 1525 1526 1528 1529 1530 1531 1531 1532 1532 1532 1532 1533 1533 1533 1533 1533 1534 1534 1534 1533 1533 1534 1534
1493 1502 1504 1525 1531 1539 1533 1522 1509 1500 1499 1498 1499 1500 1502 1503 1505 1506 1509 1511 1514 1515 1517 1518 1520 1521 1523 1524 1525 1526 1527 1527 1528 1529 1529 1530 1530 1530 1531 1531 1531 1531 1531 1531 1531 1531 1531 1531 1531
1484 1492 1510 1525 1540 1546 1536 1530 1523 1508 1503 1501 1500 1499 1500 1502 1504 1507 1508 1510 1512 1513 1515 1516 1517 1519 1520 1521 1522 1523 1524 1524 1525 1526 1526 1526 1527 1527 1528 1528 1528 1528 1528 1528 1528 1528 1528 1528 1528
1489 1494 1506 1521 1527 1542 1547 1534 1503 1501 1499 1500 1500 1500 1501 1502 1503 1505 1507 1508 1510 1511 1512 1513 1514 1516 1517 1518 1519 1520 1520 1521 1522 1522 1522 1523 1523 1524 1524 1524 1525 1525 1525 1525 1525 1525 1525 1525 1524
1483 1490 1502 1520 1525 1530 1537 1529 1494 1494 1495 1497 1498 1500 1501 1501 1503 1504 1505 1507 1509 1509 1510 1510 1511 1513 1514 1515 1516 1516 1517 1518 1518 1518 1518 1519 1519 1520 1520 1521 1521 1521 1521 1522 1522 1522 1522 1521 1521